Regional Weather Roundup
Issued by NWS Cleveland, OH

Home | Current Version | Previous Version | Text Only | Print | Product List | Glossary On
Versions: 1 2 3 4 5 6 7 8 9 10 11 12 13 14 15 16 17 18 19 20 21 22 23 24 25 26 27 28 29 30 31 32 33 34 35 36 37 38 39 40 41 42 43 44 45 46 47 48 49 50
000
ASUS41 KCLE 300312
RWRCLE
OHIO REGIONAL WEATHER ROUNDUP
NATIONAL WEATHER SERVICE WILMINGTON, OH
1100 PM EDT FRI JUL 29 2016

NOTE: "FAIR" INDICATES FEW OR NO CLOUDS BELOW 12,000 FEET WITH NO
SIGNIFICANT WEATHER AND/OR OBSTRUCTIONS TO VISIBILITY.

OHZ001>008-015>018-024>027-034-035-043-044-300400-
   NORTHWEST OHIO

CITY           SKY/WX    TMP DP  RH WIND       PRES   REMARKS
DEFIANCE       FAIR      72  68  87 E5        29.95F
FINDLAY        LGT RAIN  73  68  84 NE6       29.96R
TOLEDO EXPRESS LGT RAIN  70  70 100 NE3       29.96S
TOLEDO EXEC    MOCLDY    75  71  87 E3        29.97R
LIMA           MOCLDY    71  71 100 NE5       29.95F
$$

OHZ009>014-019>023-028>033-038-089-300400-
   NORTHEAST OHIO

CITY           SKY/WX    TMP DP  RH WIND       PRES   REMARKS
CLE-HOPKINS    MOCLDY    77  65  66 E6        29.98R
CLE-LAKEFRONT  FAIR      78  67  68 E5        29.95R
CUY CO. ARPT   CLOUDY    75  70  83 SE5       29.98R
LORAIN-ELYRIA  FAIR      71  67  87 NE3       29.96F
ASHTABULA      FAIR      68  68 100 CALM      29.99R
AKRON-CANTON   CLOUDY    71  67  87 S6        29.98R
WOOSTER        FAIR      69  66  90 SE8       29.98R
MANSFIELD      FAIR      71  66  84 SE5       29.98S
YOUNGSTOWN     CLOUDY    69  66  90 E5        29.98R
$$

OHZ042-051>053-060>062-070>072-077>081-300400-
  SOUTHWEST OHIO

CITY           SKY/WX    TMP DP  RH WIND       PRES   REMARKS
CINC-COVINGTON CLOUDY    72  71  97 N6        29.95S
CINC-LUNKEN    FAIR      70 N/A N/A CALM      29.94F
HAMILTON       LGT RAIN  75  70  84 CALM      29.94F
DAYTON         FAIR      70  70 100 N6        29.97R FOG
WRIGHT-PAT AFB MOCLDY    71  71 100 NE2       29.95R
DAYTON GENERAL MOCLDY    72  68  87 S9        29.95R
WILMINGTON     FAIR      69  68  96 SW3       29.96R
$$

OHZ036-037-039>041-045>050-054>059-063>069-073>076-082>088-300400-
  CENTRAL AND SOUTHEAST OHIO

CITY           SKY/WX    TMP DP  RH WIND       PRES   REMARKS
COLUMBUS       CLOUDY    76  68  76 E5        29.94R
OSU AIRPORT    FAIR      73  67  81 NE5       29.95R
BOLTON FIELD   RAIN      73  72  97 SW5       29.96R
RICKENBACK AFB MOCLDY    75  70  86 CALM      29.95R
NEWARK         FAIR      71  67  87 NE5       29.95S
MARION         FAIR      73  66  78 CALM      29.97R
LANCASTER      LGT RAIN  73  71  93 S3        29.95S
ZANESVILLE     FAIR      76  70  82 NE3       29.96R
NEW PHILLY     MOCLDY    73  68  84 CALM      29.97F
$$



USA.gov is the U.S. government's official web portal to all federal, state and local government web resources and services.